Weather History for KDPA - March, 2012

Change the Weather History Date:

Friday, March 30, 2012

  Actual Average Record
Temperature  
Mean Temperature 48 °F 43 °F  
Max Temperature 56 °F 54 °F 78 °F (1998)
Min Temperature 39 °F 32 °F 21 °F (2014)
Degree Days  
Heating Degree Days 17 22  
Month to date heating degree days 401 814  
Since 1 July heating degree days 5569  
Cooling Degree Days 0 0  
Month to date cooling degree days 29 0  
Year to date cooling degree days 29 0  
Moisture  
Dew Point 40 °F    
Average Humidity 78    
Maximum Humidity 87    
Minimum Humidity 71    
Precipitation  
Precipitation 0.28 in 0.08 in 0.33 in ()
Month to date precipitation 2.13 2.27  
Year to date precipitation 4.25 5.00  
Sea Level Pressure  
Sea Level Pressure 29.81 in    
Wind  
Wind Speed 8 mph (NE)    
Max Wind Speed 15 mph    
Max Gust Speed 20 mph    
Visibility 7 miles    
Events Rain , Thunderstorm    
T = Trace of Precipitation, MM = Missing Value Source: NWS Daily Summary

Daily Weather History Graph

Daily Weather History Graph

Search for Another Location

Airport or City:

Trip Planner

Search our weather history database for the weather conditions in past years. The results will help you decide how hot, cold, wet, or windy it might be!

Date:

Astronomy

Mar. 30, 2012 Rise Set
Actual Time 6:38 AM CDT 7:16 PM CDT
Civil Twilight 6:10 AM CDT 7:45 PM CDT
Nautical Twilight 5:37 AM CDT 8:18 PM CDT
Astronomical Twilight 5:02 AM CDT 8:52 PM CDT
Moon 11:39 AM CDT (3/30) 1:57 AM CDT (3/30)
Length of Visible Light 13h 34m
Length of Day
12h 38m
Waxing Crescent, 49% of the Moon is Illuminated
Mar 30
Waxing Crescent
Mar 30
First Quarter
Apr 6
Full
Apr 13
Last Quarter
Apr 21
New

Hourly Weather History & Observations

Time (CDT) Temp. Windchill Dew Point Humidity Pressure Visibility Wind Dir Wind Speed Gust Speed Precip Events Conditions
12:52 AM 39.0 °F 33.4 °F 34.0 °F 82% 29.94 in 10.0 mi East 8.1 mph - N/A   Mostly Cloudy
1:52 AM 39.9 °F 35.1 °F 34.0 °F 79% 29.89 in 10.0 mi ESE 6.9 mph - 0.00 in   Scattered Clouds
2:52 AM 43.0 °F 38.8 °F 36.0 °F 76% 29.86 in 10.0 mi ESE 6.9 mph - N/A   Overcast
3:52 AM 45.0 °F 40.6 °F 36.0 °F 71% 29.82 in 10.0 mi SE 8.1 mph - N/A   Mostly Cloudy
4:52 AM 46.0 °F 40.6 °F 37.0 °F 71% 29.77 in 10.0 mi SE 11.5 mph 18.4 mph N/A   Partly Cloudy
5:52 AM 48.0 °F - 39.9 °F 74% 29.77 in 6.0 mi Variable 3.5 mph 17.3 mph 0.03 in Rain , Thunderstorm Light Thunderstorms and Rain
6:17 AM 46.4 °F 42.9 °F 39.2 °F 76% 29.74 in 9.0 mi ESE 6.9 mph - 0.09 in Rain Light Rain
6:29 AM 46.4 °F 41.5 °F 41.0 °F 81% 29.71 in 9.0 mi East 10.4 mph - 0.10 in Thunderstorm Thunderstorm
7:12 AM 46.4 °F 42.9 °F 42.8 °F 87% 29.75 in 5.0 mi SE 6.9 mph - 0.05 in Rain Rain
7:52 AM 46.9 °F - 42.1 °F 83% 29.76 in 6.0 mi SSE 3.5 mph - 0.07 in   Haze
8:52 AM 48.0 °F - 44.1 °F 86% 29.76 in 5.0 mi ENE 5.8 mph - N/A   Overcast
9:52 AM 51.1 °F - 46.0 °F 83% 29.73 in 5.0 mi ENE 8.1 mph - N/A   Haze
10:27 AM 51.8 °F - 44.6 °F 76% 29.73 in 6.0 mi East 5.8 mph - N/A   Haze
10:52 AM 51.1 °F - 45.0 °F 80% 29.73 in 6.0 mi ENE 4.6 mph - N/A   Haze
11:26 AM 53.6 °F - 46.4 °F 77% 29.72 in 7.0 mi NNE 6.9 mph - N/A   Overcast
11:52 AM 54.0 °F - 46.9 °F 77% 29.73 in 6.0 mi ENE 5.8 mph - N/A   Haze
12:52 PM 55.0 °F - 46.0 °F 72% 29.74 in 5.0 mi NNE 8.1 mph - N/A   Haze
1:52 PM 55.0 °F - 46.0 °F 72% 29.75 in 5.0 mi North 9.2 mph - 0.01 in   Haze
2:04 PM 53.6 °F - 44.6 °F 72% 29.74 in 5.0 mi North 11.5 mph - N/A   Haze
2:52 PM 52.0 °F - 43.0 °F 71% 29.77 in 6.0 mi North 6.9 mph - N/A   Haze
3:52 PM 52.0 °F - 43.0 °F 71% 29.78 in 6.0 mi North 10.4 mph - N/A   Haze
4:52 PM 48.9 °F - 41.0 °F 74% 29.81 in 5.0 mi North 12.7 mph - N/A   Haze
5:52 PM 46.9 °F - 39.0 °F 74% 29.83 in 5.0 mi North 10.4 mph - N/A   Haze
6:13 PM 44.6 °F 38.8 °F 39.2 °F 81% 29.83 in 5.0 mi North 11.5 mph - N/A   Haze
6:52 PM 43.0 °F 36.8 °F 37.0 °F 80% 29.86 in 4.0 mi North 11.5 mph - N/A   Haze
7:52 PM 42.1 °F 36.1 °F 36.0 °F 79% 29.87 in 6.0 mi NNE 10.4 mph - N/A   Haze
8:52 PM 42.1 °F 36.6 °F 36.0 °F 79% 29.89 in 5.0 mi NE 9.2 mph - N/A   Haze
9:25 PM 41.0 °F 35.2 °F 35.6 °F 81% 29.89 in 5.0 mi NE 9.2 mph - N/A   Haze
9:52 PM 39.9 °F 33.9 °F 35.1 °F 83% 29.90 in 7.0 mi NE 9.2 mph - N/A   Overcast
10:52 PM 39.9 °F 33.4 °F 34.0 °F 79% 29.91 in 9.0 mi NE 10.4 mph - N/A   Overcast
11:03 PM 39.2 °F 33.0 °F 33.8 °F 81% 29.91 in 10.0 mi NE 9.2 mph - N/A   Overcast
11:52 PM 39.9 °F 33.9 °F 34.0 °F 79% 29.94 in 10.0 mi NE 9.2 mph - N/A   Overcast